EJU91TW LSGG-LPPT

Flight info

Callsign EJU91TW
Flight time N/A
Altitude 37000
Route DEPUL T544 LSE DCT RUSIT DCT ESIDA DCT LERGA DCT MINSO DCT NARAK DCT AGN DCT PIPOR L866 PPN DCT MIRPO DCT DGO DCT NEA DCT ARDID DCT INBOM
Aircraft A319/M-SDE3FGHIRWY/LB1

Departure

Time 2026-05-04 15:11
Airport Geneva International Airport (LSGG)

Arrival

Time N/A
Airport Lisbon Humberto Delgado Airport (LPPT)
Time Latitude Longitude Altitude Speed Heading
2026-05-04 14:30 46.23053 6.10616 1393 ft 0 kts 135°
2026-05-04 14:59 46.23073 6.10579 1402 ft 4 kts 112°
2026-05-04 15:00 46.23078 6.10542 1401 ft 4 kts 77°
2026-05-04 15:00 46.23072 6.10521 1397 ft 0 kts 45°
2026-05-04 15:03 46.23073 6.10523 1398 ft 1 kts 45°
2026-05-04 15:03 46.23086 6.10541 1404 ft 4 kts 45°
2026-05-04 15:03 46.23115 6.10584 1401 ft 8 kts 45°
2026-05-04 15:04 46.23161 6.10651 1396 ft 10 kts 45°
2026-05-04 15:04 46.23211 6.10724 1399 ft 10 kts 45°
2026-05-04 15:04 46.23267 6.10782 1396 ft 10 kts 15°
2026-05-04 15:04 46.23335 6.10813 1393 ft 11 kts 34°
2026-05-04 15:05 46.23394 6.10901 1393 ft 14 kts 46°
2026-05-04 15:05 46.23467 6.11009 1393 ft 16 kts 45°
2026-05-04 15:05 46.23544 6.11123 1397 ft 16 kts 46°
2026-05-04 15:05 46.23612 6.11150 1395 ft 11 kts 315°
2026-05-04 15:06 46.23673 6.11067 1386 ft 13 kts 331°
2026-05-04 15:06 46.23756 6.11155 1381 ft 19 kts 45°
2026-05-04 15:06 46.23854 6.11299 1376 ft 21 kts 45°
2026-05-04 15:07 46.24085 6.11635 1368 ft 26 kts 45°
2026-05-04 15:07 46.24217 6.11829 1363 ft 28 kts 46°
2026-05-04 15:07 46.24352 6.12030 1365 ft 27 kts 44°
2026-05-04 15:07 46.24475 6.12210 1372 ft 24 kts 45°
2026-05-04 15:08 46.24592 6.12381 1370 ft 25 kts 47°
2026-05-04 15:08 46.24718 6.12568 1362 ft 23 kts 46°
2026-05-04 15:08 46.24808 6.12672 1362 ft 15 kts 19°
2026-05-04 15:08 46.24905 6.12714 1366 ft 13 kts 17°
2026-05-04 15:09 46.24981 6.12714 1369 ft 10 kts 322°
2026-05-04 15:09 46.25008 6.12663 1372 ft 4 kts 267°
2026-05-04 15:09 46.24989 6.12632 1371 ft 4 kts 225°
2026-05-04 15:10 46.24978 6.12617 1372 ft 10 kts 225°
2026-05-04 15:10 46.24730 6.12254 1372 ft 88 kts 225°
2026-05-04 15:10 46.23354 6.10241 1791 ft 162 kts 226°
2026-05-04 15:11 46.22578 6.09082 2524 ft 159 kts 226°
2026-05-04 15:11 46.21772 6.07887 3023 ft 177 kts 225°
2026-05-04 15:11 46.20850 6.06560 3418 ft 197 kts 224°
2026-05-04 15:11 46.19830 6.05098 3833 ft 216 kts 223°
2026-05-04 15:12 46.18707 6.03494 4211 ft 241 kts 223°
2026-05-04 15:12 46.17467 6.01696 4841 ft 257 kts 224°
2026-05-04 15:12 46.16208 5.99848 5875 ft 259 kts 224°
2026-05-04 15:12 46.14951 5.97967 6826 ft 264 kts 224°
2026-05-04 15:13 46.13728 5.95972 7752 ft 268 kts 232°
2026-05-04 15:13 46.12761 5.93664 8786 ft 268 kts 237°
2026-05-04 15:13 46.11791 5.91443 9745 ft 270 kts 235°
2026-05-04 15:13 46.10759 5.89199 10496 ft 279 kts 234°
2026-05-04 15:14 46.09609 5.86752 10804 ft 303 kts 234°
2026-05-04 15:14 46.08402 5.84186 11366 ft 314 kts 234°
2026-05-04 15:14 46.07184 5.81586 12070 ft 319 kts 234°
2026-05-04 15:14 46.05938 5.78917 12863 ft 323 kts 234°
2026-05-04 15:15 46.04674 5.76203 13650 ft 327 kts 234°
2026-05-04 15:15 46.03399 5.73462 14324 ft 333 kts 234°
2026-05-04 15:15 46.02109 5.70686 14854 ft 335 kts 234°
2026-05-04 15:16 45.99525 5.65120 15045 ft 334 kts 234°
2026-05-04 15:16 45.98233 5.62349 15048 ft 334 kts 234°
2026-05-04 15:16 45.95677 5.56784 15042 ft 334 kts 236°
2026-05-04 15:17 45.94432 5.53964 15043 ft 334 kts 236°
2026-05-04 15:17 45.91973 5.48307 15036 ft 335 kts 236°
2026-05-04 15:17 45.90736 5.45471 15038 ft 335 kts 236°
2026-05-04 15:18 45.89496 5.42646 15033 ft 334 kts 236°
2026-05-04 15:18 45.88247 5.39820 15035 ft 335 kts 236°
2026-05-04 15:18 45.86996 5.37002 15030 ft 335 kts 236°
2026-05-04 15:19 45.84492 5.31351 15031 ft 336 kts 236°
2026-05-04 15:19 45.83234 5.28517 15101 ft 339 kts 236°
2026-05-04 15:19 45.80675 5.22777 16559 ft 344 kts 235°
2026-05-04 15:20 45.79380 5.19879 17263 ft 347 kts 235°
2026-05-04 15:20 45.78071 5.16950 17960 ft 351 kts 235°
2026-05-04 15:20 45.76753 5.13996 18605 ft 354 kts 235°
2026-05-04 15:20 45.75423 5.11015 19208 ft 357 kts 235°
2026-05-04 15:21 45.74534 5.09021 19643 ft 358 kts 235°
2026-05-04 15:21 45.73247 5.05949 20253 ft 362 kts 237°
2026-05-04 15:21 45.70797 4.99585 21495 ft 367 kts 239°
2026-05-04 15:22 45.69584 4.96356 22109 ft 370 kts 239°
2026-05-04 15:22 45.68357 4.93110 22724 ft 372 kts 238°
2026-05-04 15:22 45.65868 4.86562 23853 ft 377 kts 239°
2026-05-04 15:23 45.64664 4.83211 24336 ft 380 kts 240°
2026-05-04 15:23 45.63482 4.79829 24811 ft 382 kts 240°
2026-05-04 15:23 45.62298 4.76415 25304 ft 383 kts 240°
2026-05-04 15:23 45.61112 4.73002 25757 ft 385 kts 240°
2026-05-04 15:24 45.58691 4.66128 26638 ft 390 kts 240°
2026-05-04 15:24 45.56215 4.59185 27502 ft 394 kts 240°
2026-05-04 15:25 45.54965 4.55691 27941 ft 397 kts 240°
2026-05-04 15:25 45.53707 4.52172 28383 ft 399 kts 240°
2026-05-04 15:25 45.52441 4.48635 28805 ft 401 kts 240°
2026-05-04 15:26 45.49900 4.41562 29605 ft 406 kts 240°
2026-05-04 15:26 45.48607 4.37970 30004 ft 408 kts 240°
2026-05-04 15:26 45.46007 4.30743 30683 ft 411 kts 240°
2026-05-04 15:27 45.44699 4.27107 31035 ft 413 kts 240°
2026-05-04 15:27 45.42071 4.19812 31756 ft 413 kts 240°
2026-05-04 15:28 45.39458 4.12591 32747 ft 408 kts 240°
2026-05-04 15:28 45.38162 4.09014 33259 ft 405 kts 240°
2026-05-04 15:28 45.35595 4.01953 34236 ft 399 kts 240°
2026-05-04 15:29 45.34317 3.98453 34636 ft 398 kts 240°
2026-05-04 15:30 45.29221 3.84531 35933 ft 397 kts 240°
2026-05-04 15:30 45.25308 3.74166 36803 ft 396 kts 235°
2026-05-04 15:31 45.22161 3.67748 36996 ft 395 kts 234°
2026-05-04 15:31 45.20586 3.64556 36992 ft 394 kts 234°
2026-05-04 15:32 45.12727 3.48669 36987 ft 394 kts 234°
2026-05-04 15:34 45.04878 3.32856 36971 ft 394 kts 234°
2026-05-04 15:34 45.00140 3.23364 36969 ft 394 kts 234°
2026-05-04 15:35 44.95390 3.13882 36964 ft 394 kts 233°
2026-05-04 15:36 44.90625 3.04396 36957 ft 394 kts 233°
2026-05-04 15:36 44.87447 2.98088 36956 ft 394 kts 233°
2026-05-04 15:37 44.84266 2.91780 36944 ft 395 kts 234°
2026-05-04 15:37 44.81227 2.85308 36943 ft 396 kts 236°
2026-05-04 15:38 44.78277 2.78749 36941 ft 397 kts 236°
2026-05-04 15:38 44.75299 2.72200 36938 ft 397 kts 236°
2026-05-04 15:39 44.72290 2.65691 36942 ft 397 kts 236°
2026-05-04 15:40 44.67738 2.55919 36939 ft 398 kts 236°
2026-05-04 15:40 44.64699 2.49399 36948 ft 399 kts 236°
2026-05-04 15:41 44.61661 2.42884 36948 ft 399 kts 236°
2026-05-04 15:41 44.58624 2.36377 36937 ft 398 kts 236°
2026-05-04 15:42 44.55586 2.29889 36932 ft 399 kts 235°
2026-05-04 15:42 44.52548 2.23424 36939 ft 401 kts 236°
2026-05-04 15:43 44.49471 2.16902 36934 ft 401 kts 235°
2026-05-04 15:43 44.46404 2.10403 36929 ft 400 kts 235°
2026-05-04 15:44 44.43336 2.03913 36921 ft 400 kts 235°
2026-05-04 15:44 44.40257 1.97423 36923 ft 400 kts 235°
2026-05-04 15:45 44.37176 1.90935 36924 ft 400 kts 235°
2026-05-04 15:45 44.34092 1.84449 36926 ft 401 kts 235°
2026-05-04 15:46 44.30994 1.77976 36932 ft 401 kts 234°
2026-05-04 15:46 44.27914 1.71486 36932 ft 401 kts 235°
2026-05-04 15:47 44.24907 1.64924 36934 ft 401 kts 236°
2026-05-04 15:47 44.21926 1.58350 36938 ft 401 kts 236°
2026-05-04 15:48 44.18922 1.51794 36943 ft 401 kts 235°
2026-05-04 15:48 44.14384 1.42001 36944 ft 401 kts 235°
2026-05-04 15:49 44.11359 1.35490 36948 ft 400 kts 235°
2026-05-04 15:49 44.08338 1.28987 36946 ft 400 kts 235°
2026-05-04 15:50 44.05314 1.22499 36949 ft 399 kts 235°
2026-05-04 15:50 44.02293 1.16016 36951 ft 399 kts 234°
2026-05-04 15:51 43.99263 1.09545 36953 ft 399 kts 234°
2026-05-04 15:51 43.96232 1.03076 36952 ft 400 kts 234°
2026-05-04 15:52 43.93203 0.96603 36955 ft 400 kts 234°
2026-05-04 15:52 43.90175 0.90189 36956 ft 400 kts 234°
2026-05-04 15:53 43.87143 0.83653 36950 ft 401 kts 236°
2026-05-04 15:53 43.84306 0.76998 36948 ft 402 kts 237°
2026-05-04 15:54 43.81504 0.70344 36947 ft 402 kts 237°
2026-05-04 15:54 43.78654 0.63680 36949 ft 403 kts 237°
2026-05-04 15:55 43.75770 0.57024 36954 ft 403 kts 236°
2026-05-04 15:55 43.72872 0.50369 36947 ft 404 kts 236°
2026-05-04 15:56 43.69950 0.43659 36951 ft 405 kts 237°
2026-05-04 15:56 43.67061 0.37029 36951 ft 406 kts 237°
2026-05-04 15:57 43.64146 0.30350 36955 ft 406 kts 237°
2026-05-04 15:57 43.61224 0.23676 36960 ft 407 kts 237°
2026-05-04 15:58 43.58287 0.16988 36963 ft 407 kts 237°
2026-05-04 15:58 43.55349 0.10310 36969 ft 408 kts 237°
2026-05-04 15:59 43.52408 0.03620 36977 ft 408 kts 237°
2026-05-04 15:59 43.49453 -0.03063 36984 ft 408 kts 237°
2026-05-04 16:00 43.46495 -0.09736 36991 ft 408 kts 237°
2026-05-04 16:00 43.43535 -0.16412 36995 ft 408 kts 237°
2026-05-04 16:01 43.40565 -0.23088 37002 ft 409 kts 237°
2026-05-04 16:01 43.37597 -0.29747 37006 ft 409 kts 237°
2026-05-04 16:02 43.34638 -0.36370 37009 ft 409 kts 237°
2026-05-04 16:03 43.30159 -0.46349 37015 ft 409 kts 237°
2026-05-04 16:03 43.27657 -0.51915 37014 ft 409 kts 237°
2026-05-04 16:04 43.24673 -0.58566 37000 ft 409 kts 237°
2026-05-04 16:04 43.20211 -0.68467 37002 ft 409 kts 237°
2026-05-04 16:05 43.17206 -0.75093 37002 ft 409 kts 237°
2026-05-04 16:06 43.12696 -0.85010 37006 ft 409 kts 237°
2026-05-04 16:07 43.06676 -0.98221 37013 ft 409 kts 237°
2026-05-04 16:08 43.00643 -1.11391 37019 ft 408 kts 237°
2026-05-04 16:09 42.93095 -1.27786 37017 ft 408 kts 237°
2026-05-04 16:10 42.87043 -1.40856 36995 ft 407 kts 237°
2026-05-04 16:11 42.81007 -1.53865 37008 ft 408 kts 237°
2026-05-04 16:12 42.72544 -1.73892 37008 ft 411 kts 251°
2026-05-04 16:13 42.69209 -1.88741 37012 ft 411 kts 251°
2026-05-04 16:14 42.65842 -2.03546 36994 ft 409 kts 251°
2026-05-04 16:16 42.61585 -2.22014 36983 ft 409 kts 250°
2026-05-04 16:17 42.57091 -2.40339 36979 ft 409 kts 250°
2026-05-04 16:18 42.53512 -2.54989 36989 ft 409 kts 250°
2026-05-04 16:19 42.49007 -2.73266 36984 ft 409 kts 250°
2026-05-04 16:20 42.44216 -2.91341 36992 ft 407 kts 244°
2026-05-04 16:22 42.38301 -3.08745 36993 ft 407 kts 244°
2026-05-04 16:23 42.31171 -3.29530 36984 ft 406 kts 244°
2026-05-04 16:25 42.24045 -3.50175 36983 ft 404 kts 244°
2026-05-04 16:26 42.15685 -3.74181 36979 ft 404 kts 244°
2026-05-04 16:28 42.09700 -3.91268 36975 ft 403 kts 244°
2026-05-04 16:29 42.01247 -4.15055 36977 ft 402 kts 243°
2026-05-04 16:31 41.94831 -4.31765 36977 ft 402 kts 243°
2026-05-04 16:32 41.87181 -4.51770 36980 ft 401 kts 243°
2026-05-04 16:33 41.82083 -4.65004 36975 ft 400 kts 243°
2026-05-04 16:34 41.78232 -4.74982 36977 ft 400 kts 243°
2026-05-04 16:35 41.70556 -4.94751 36976 ft 399 kts 243°
2026-05-04 16:36 41.66699 -5.04623 36973 ft 399 kts 243°
2026-05-04 16:37 41.62835 -5.14475 36968 ft 399 kts 243°
2026-05-04 16:38 41.57682 -5.27589 36959 ft 398 kts 243°